Date String (YYYY-MM-DD hh:mm:ss) UTC,Instrument flags,Ambient pressure (hPa),Sample flow (lpm),Bypass flow (lpm),Sample temperature (°C),Ambient temperature (°C),ASC tube jacket temperature (°C),LED temperature (°C),Box temperature (°C),Sample RH (%),Span deviation,Mass concentration (μg/m³),Mass concentration (μg/m³),Mass concentration (μg/m³)
DateTimeUTC,F1_M11,P_M11,Q1_M11,Q2_M11,T1_M11,T2_M11,T3_M11,T4_M11,T5_M11,U1_M11,ZSPAN_M11,X0_M11,X2_M11,X1_M11
2022-07-14 14:00:00,,0831.0,5.01,0.00,29.8,27.8,00.0,38.4,31.6,23.8,0000.0,0010.94,0005.25,0004.53
2022-07-14 14:01:00,,0831.0,4.99,0.00,29.7,27.5,00.0,38.4,31.5,23.6,0000.0,0011.22,0005.19,0004.47
2022-07-14 14:02:00,,0831.1,5.00,0.00,29.7,27.5,00.0,38.4,31.5,23.6,0000.0,0010.40,0005.11,0004.40
2022-07-14 14:03:00,,0831.0,4.99,0.00,29.7,27.6,00.0,38.4,31.4,23.7,0000.0,0010.42,0005.06,0004.35
2022-07-14 14:04:00,,0831.1,5.01,0.00,29.7,27.8,00.0,38.4,31.4,23.9,0000.0,0010.50,0005.02,0004.29
2022-07-14 14:05:00,,0831.2,5.01,0.00,29.7,27.9,00.0,38.4,31.5,24.0,0000.0,0010.52,0004.96,0004.24
2022-07-14 14:06:00,,0831.2,4.99,0.00,29.7,28.1,00.0,38.4,31.5,24.1,0000.0,0010.29,0004.89,0004.19
2022-07-14 14:07:00,,0831.2,5.00,0.00,29.7,28.2,00.0,38.4,31.5,24.1,0000.0,0009.89,0004.85,0004.15
2022-07-14 14:08:00,,0831.2,5.00,0.00,29.7,28.4,00.0,38.4,31.6,24.0,0000.0,0009.90,0004.83,0004.11
2022-07-14 14:09:00,,0831.2,4.99,0.00,29.7,28.5,00.0,38.5,31.6,24.1,0000.0,0009.38,0004.78,0004.08
2022-07-14 14:10:00,,0831.2,5.01,0.00,29.7,28.6,00.0,38.5,31.7,23.9,0000.0,0009.39,0004.78,0004.06
2022-07-14 14:11:00,,0831.2,5.00,0.00,29.8,28.7,00.0,38.5,31.7,23.8,0000.0,0009.24,0004.75,0004.06
2022-07-14 14:12:00,,0831.2,5.01,0.00,29.8,28.6,00.0,38.5,31.8,24.0,0000.0,0008.73,0004.73,0004.06
2022-07-14 14:13:00,,0831.2,5.00,0.00,29.8,28.0,00.0,38.4,31.7,24.2,0000.0,0008.88,0004.75,0004.07
2022-07-14 14:14:00,,0831.2,5.00,0.00,29.7,27.5,00.0,38.4,31.5,24.2,0000.0,0009.08,0004.78,0004.07
2022-07-14 14:15:00,,0831.2,5.00,0.00,29.7,27.5,00.0,38.4,31.5,24.5,0000.0,0009.41,0004.80,0004.09
2022-07-14 14:16:00,,0831.2,5.00,0.00,29.7,27.5,00.0,38.4,31.4,24.4,0000.0,0009.34,0004.81,0004.10
2022-07-14 14:17:00,,0831.2,5.01,0.00,29.6,27.7,00.0,38.4,31.4,24.1,0000.0,0009.60,0004.87,0004.12
2022-07-14 14:18:00,,0831.2,5.00,0.00,29.6,27.8,00.0,38.4,31.4,24.0,0000.0,0009.54,0004.84,0004.13
2022-07-14 14:19:00,,0831.2,5.01,0.00,29.6,28.0,00.0,38.4,31.4,24.2,0000.0,0009.90,0004.82,0004.14
2022-07-14 14:20:00,,0831.2,4.99,0.00,29.6,28.1,00.0,38.4,31.5,24.2,0000.0,0009.90,0004.84,0004.15
2022-07-14 14:21:00,,0831.3,5.01,0.00,29.7,28.3,00.0,38.4,31.5,24.6,0000.0,0009.89,0004.83,0004.15
2022-07-14 14:22:00,,0831.3,5.01,0.00,29.7,28.4,00.0,38.4,31.6,24.2,0000.0,0009.90,0004.83,0004.17
2022-07-14 14:23:00,,0831.3,4.99,0.00,29.7,28.5,00.0,38.4,31.6,24.3,0000.0,0009.94,0004.84,0004.18
2022-07-14 14:24:00,,0831.3,5.01,0.00,29.7,28.6,00.0,38.5,31.7,24.4,0000.0,0009.89,0004.86,0004.19
2022-07-14 14:25:00,,0831.3,4.99,0.00,29.8,28.5,00.0,38.4,31.7,24.5,0000.0,0009.81,0004.84,0004.20
2022-07-14 14:26:00,,0831.3,5.00,0.00,29.7,27.8,00.0,38.4,31.6,24.4,0000.0,0009.78,0004.85,0004.20
2022-07-14 14:27:00,,0831.4,5.01,0.00,29.7,27.4,00.0,38.3,31.5,24.4,0000.0,0009.75,0004.86,0004.20
2022-07-14 14:28:00,,0831.3,5.00,0.00,29.7,27.5,00.0,38.4,31.4,24.3,0000.0,0009.62,0004.85,0004.20
2022-07-14 14:29:00,,0831.3,4.99,0.00,29.6,27.6,00.0,38.4,31.4,24.7,0000.0,0009.59,0004.86,0004.21
2022-07-14 14:30:00,,0831.3,4.99,0.00,29.6,27.7,00.0,38.4,31.4,24.9,0000.0,0009.37,0004.86,0004.22
2022-07-14 14:31:00,,0831.3,5.01,0.00,29.6,27.9,00.0,38.4,31.4,24.7,0000.0,0009.95,0004.90,0004.22
2022-07-14 14:32:00,,0831.3,4.99,0.00,29.6,28.0,00.0,38.4,31.4,24.8,0000.0,0010.68,0004.93,0004.24
2022-07-14 14:33:00,,0831.3,5.01,0.00,29.6,28.1,00.0,38.4,31.5,24.6,0000.0,0010.86,0004.96,0004.25
2022-07-14 14:34:00,,0831.4,5.01,0.00,29.6,28.3,00.0,38.4,31.6,24.5,0000.0,0011.07,0005.01,0004.26
2022-07-14 14:35:00,,0831.3,4.99,0.00,29.7,28.4,00.0,38.4,31.6,24.4,0000.0,0011.11,0004.99,0004.27
2022-07-14 14:36:00,,0831.3,5.00,0.00,29.7,28.5,00.0,38.4,31.6,24.1,0000.0,0010.98,0005.00,0004.27
2022-07-14 14:37:00,,0831.4,5.00,0.00,29.7,28.6,00.0,38.4,31.7,24.1,0000.0,0010.59,0004.99,0004.26
2022-07-14 14:38:00,,0831.4,5.00,0.00,29.7,28.3,00.0,38.4,31.7,24.2,0000.0,0010.78,0004.96,0004.25
2022-07-14 14:39:00,,0831.4,4.99,0.00,29.7,27.6,00.0,38.3,31.5,24.2,0000.0,0011.05,0004.95,0004.24
2022-07-14 14:40:00,,0831.4,5.00,0.00,29.6,27.3,00.0,38.3,31.4,23.8,0000.0,0011.36,0004.95,0004.23
2022-07-14 14:41:00,,0831.4,4.99,0.00,29.6,27.3,00.0,38.3,31.3,24.0,0000.0,0011.46,0004.94,0004.22
2022-07-14 14:42:00,,0831.4,5.00,0.00,29.6,27.4,00.0,38.3,31.3,24.9,0000.0,0010.87,0004.89,0004.20
2022-07-14 14:43:00,,0831.4,5.00,0.00,29.5,27.6,00.0,38.3,31.3,25.1,0000.0,0010.42,0004.88,0004.19
2022-07-14 14:44:00,,0831.5,5.00,0.00,29.5,27.8,00.0,38.3,31.4,24.7,0000.0,0010.96,0004.87,0004.17
2022-07-14 14:45:00,,0831.5,5.00,0.00,29.5,27.9,00.0,38.3,31.4,24.6,0000.0,0010.86,0004.84,0004.17
2022-07-14 14:46:00,,0831.4,5.01,0.00,29.6,28.1,00.0,38.3,31.4,25.1,0000.0,0011.21,0004.86,0004.17
2022-07-14 14:47:00,,0831.5,4.99,0.00,29.6,28.2,00.0,38.3,31.5,25.5,0000.0,0011.29,0004.87,0004.18
2022-07-14 14:48:00,,0831.5,5.02,0.00,29.6,28.3,00.0,38.3,31.5,25.3,0000.0,0011.41,0004.88,0004.19
2022-07-14 14:49:00,,0831.4,4.99,0.00,29.6,28.5,00.0,38.4,31.6,25.2,0000.0,0011.42,0004.93,0004.22
2022-07-14 14:50:00,,0831.5,5.01,0.00,29.7,28.5,00.0,38.4,31.6,25.0,0000.0,0011.10,0004.96,0004.25
2022-07-14 14:51:00,,0831.4,5.00,0.00,29.7,28.1,00.0,38.3,31.6,25.4,0000.0,0011.75,0004.99,0004.29
2022-07-14 14:52:00,,0831.4,4.99,0.00,29.6,27.4,00.0,38.3,31.4,25.5,0000.0,0011.23,0005.03,0004.32
2022-07-14 14:53:00,,0831.5,5.00,0.00,29.6,27.2,00.0,38.3,31.4,25.9,0000.0,0011.45,0005.09,0004.36
2022-07-14 14:54:00,,0831.5,5.00,0.00,29.5,27.3,00.0,38.3,31.3,25.8,0000.0,0010.97,0005.11,0004.38
2022-07-14 14:55:00,,0831.4,5.00,0.00,29.5,27.4,00.0,38.2,31.3,26.3,0000.0,0010.65,0005.15,0004.40
2022-07-14 14:56:00,,0831.5,4.99,0.00,29.5,27.6,00.0,38.3,31.3,26.3,0000.0,0010.85,0005.21,0004.41
2022-07-14 14:57:00,,0831.5,5.00,0.00,29.5,27.7,00.0,38.3,31.3,26.4,0000.0,0010.44,0005.18,0004.42
2022-07-14 14:58:00,,0831.6,4.99,0.00,29.5,27.9,00.0,38.3,31.4,26.4,0000.0,0010.35,0005.20,0004.43
2022-07-14 14:59:00,,0831.5,5.00,0.00,29.5,28.0,00.0,38.3,31.4,26.7,0000.0,0010.30,0005.24,0004.46
